This is the latest recevied weather packets stored in our database for station/object LU1HKO-13. If no packets are shown the sender has not sent any weather packets the latest 10 day(s).
| Time | Temp. | Humidity | Pressure | Rain* | Wind** | Luminosity | Snow |
|---|---|---|---|---|---|---|---|
| 1777830663 | 21.67° C | 29% | 1016.8 hPa | 0 mm | - | - | - |
| 1777828295 | 21.11° C | 29% | 1018 hPa | 0 mm | - | - | - |
| 1777826433 | 20.56° C | 30% | 1018.6 hPa | 0 mm | - | - | - |
| 1777825218 | 20° C | 30% | 1019.3 hPa | 0 mm | - | - | - |
| 1777823457 | 18.89° C | 34% | 1019.9 hPa | 0 mm | - | - | - |
| 1777822242 | 18.33° C | 33% | 1020.3 hPa | 0 mm | - | - | - |
| 1777819266 | 17.78° C | 31% | 1021.5 hPa | 0 mm | - | - | - |
| 1777808456 | 12.22° C | 51% | 1023.2 hPa | 0 mm | - | - | - |
| 1777807242 | 11.67° C | 53% | 1023.1 hPa | 0 mm | - | - | - |
| 1777797647 | 11.67° C | 44% | 1024.1 hPa | 0 mm | - | - | - |
| 1777795238 | 12.22° C | 40% | 1024.7 hPa | 0 mm | - | - | - |
| 1777794084 | 12.22° C | 41% | 1025 hPa | 0 mm | - | - | - |
| 1777793477 | 12.22° C | 42% | 1025.1 hPa | 0 mm | - | - | - |
| 1777792850 | 12.22° C | 42% | 1025.5 hPa | 0 mm | - | - | - |
| 1777779671 | 12.22° C | 54% | 1028.9 hPa | 0 mm | - | - | - |
| 1777777890 | 12.22° C | 51% | 1029.2 hPa | 0 mm | - | - | - |
| 1777776655 | 12.22° C | 50% | 1029.4 hPa | 0 mm | - | - | - |
| 1777776028 | 12.78° C | 50% | 1029.7 hPa | 0 mm | - | - | - |
| 1777774266 | 12.78° C | 50% | 1029.7 hPa | 0 mm | - | - | - |
| 1777770076 | 12.22° C | 50% | 1030 hPa | 0 mm | - | - | - |
| 1777755624 | 17.78° C | 25% | 1029.7 hPa | 0 mm | - | - | - |
| 1777752040 | 17.78° C | 23% | 1030.1 hPa | 0 mm | - | - | - |
| 1777749065 | 17.78° C | 23% | 1030.4 hPa | 0 mm | - | - | - |
| 1777747850 | 18.33° C | 24% | 1030.6 hPa | 0 mm | - | - | - |
| 1777746029 | 18.33° C | 24% | 1030.9 hPa | 0 mm | - | - | - |
* Rain latest hour (hover to see other rain measurements)
** Current wind speed in m/s (hover to see current wind gust speed)